Wind_Speed
32 33 34 34 34 33 33 33 34 34 34 34 32 31 29 27 26 24 22 21 20 19 18 16 14 13 12 10 8 7 5 5 4 3 2 2 1 1 2 3 3 4 5 6 6 7 7 8 8 8 8 8 8 7 8 8 8 9 9 9 9 9 9 9 8 7 7 7 7
33 33 34 34 34 33 33 33 33 33 33 32 31 29 28 26 25 23 22 20 19 18 17 16 14 13 11 10 8 6 5 5 4 3 2 2 1 1 2 3 4 4 5 6 6 7 7 7 7 7 7 8 8 8 8 9 9 9 10 10 10 9 9 8 8 8 7 7 7
32 33 33 33 33 33 33 34 33 33 32 31 30 28 27 25 24 23 22 20 19 18 17 15 14 12 11 10 8 7 5 4 4 3 2 2 1 1 2 3 4 5 5 6 6 7 7 7 7 7 7 8 8 8 9 9 10 10 10 10 10 9 9 8 8 8 8 8 8
31 32 33 33 34 34 35 35 34 33 32 31 29 27 26 25 24 23 21 20 18 17 16 15 14 12 10 9 8 7 6 5 4 3 2 1 1 1 2 3 4 5 5 6 6 7 7 7 8 8 8 8 9 9 10 10 10 10 10 10 9 9 8 8 8 8 8 8 9
31 32 33 33 35 35 36 35 35 33 32 30 29 27 26 24 23 22 21 20 18 17 15 14 13 12 10 9 8 7 6 5 4 3 2 1 1 2 3 3 4 4 5 6 6 7 7 8 8 8 9 9 10 10 10 11 11 10 10 9 9 8 8 8 8 8 8 9 9
32 33 34 34 35 36 35 35 34 33 32 30 29 28 26 25 24 22 21 20 18 17 15 14 13 12 10 9 8 7 6 5 4 2 1 1 1 2 3 3 4 5 5 6 6 7 7 8 8 9 9 10 10 10 11 11 11 10 9 8 8 8 7 7 8 8 9 10 10
34 34 34 35 36 36 35 34 33 32 31 30 28 28 26 25 24 22 21 20 18 17 15 14 12 11 10 9 8 7 6 5 4 2 1 1 2 2 3 3 4 4 5 6 6 7 7 8 9 9 10 10 10 10 10 10 10 10 9 8 8 7 7 7 8 9 10 10 11
34 35 35 35 35 35 35 34 33 32 31 29 28 27 26 24 23 22 21 19 18 17 15 14 12 11 10 9 8 7 6 4 3 2 1 1 2 2 3 4 4 4 5 6 6 7 8 9 9 10 10 10 10 10 10 10 9 9 9 8 8 7 7 8 9 9 10 11 12
34 34 35 35 35 35 34 33 32 31 30 29 27 26 24 23 22 21 20 19 18 16 15 13 12 10 9 8 7 6 5 4 3 2 1 1 2 3 3 4 4 5 5 6 7 8 9 9 10 10 10 10 10 9 9 9 9 8 8 8 8 8 8 9 9 10 11 12 13
34 35 35 35 34 34 33 32 31 30 29 28 26 25 24 23 22 21 20 19 17 16 14 13 12 10 9 8 7 6 5 4 3 2 1 1 2 3 3 4 4 5 6 7 8 8 9 10 10 10 10 10 9 8 8 8 8 8 8 9 9 10 10 10 11 11 12 13 14
35 35 35 34 34 34 33 32 30 29 28 27 26 25 23 22 21 20 19 18 17 16 14 12 11 10 9 8 7 6 5 3 2 2 1 2 2 3 3 4 5 6 6 7 8 9 9 10 10 9 9 9 8 8 8 8 8 8 9 9 10 11 12 12 12 13 13 14 15
35 35 35 34 34 33 32 31 30 29 28 27 26 24 23 22 20 19 18 17 17 15 14 12 11 10 9 8 7 5 4 3 2 2 2 2 2 3 4 5 5 6 7 8 9 9 10 10 10 9 9 8 8 8 8 8 9 9 10 11 11 12 13 13 14 14 14 15 15
35 35 34 34 33 33 32 31 30 29 28 27 25 24 23 21 20 18 18 17 16 15 14 12 10 9 8 7 6 5 4 3 2 2 2 2 3 3 4 5 6 7 7 8 9 9 10 10 10 9 8 8 8 8 8 9 9 10 11 12 13 13 14 14 14 15 15 15 16
35 35 35 34 33 33 32 31 30 29 28 26 25 24 22 21 19 18 17 16 16 15 14 13 11 9 7 6 5 5 4 3 2 2 2 2 3 4 5 5 6 7 8 8 9 9 9 9 9 9 9 8 8 8 8 9 10 11 12 13 13 14 14 15 15 15 16 16 17
35 35 35 34 33 33 32 32 30 29 27 26 25 23 22 21 19 17 16 16 15 14 13 12 11 9 7 6 5 4 3 3 2 2 2 2 3 4 5 6 7 7 8 8 9 9 9 9 9 9 9 9 9 9 9 10 11 11 12 13 14 14 15 15 15 15 16 17 18
35 35 35 34 34 33 32 31 30 29 27 26 25 23 22 20 19 17 16 15 14 13 12 11 10 8 7 6 5 4 3 2 2 2 2 3 3 4 5 6 7 8 8 8 9 9 8 8 8 8 8 9 9 10 10 11 11 12 13 13 14 14 14 15 15 16 16 17 18
35 35 35 34 34 33 32 31 30 29 27 26 24 23 21 20 19 17 15 14 14 13 12 10 9 8 7 6 5 4 3 2 2 2 2 3 4 5 6 7 7 8 9 9 9 9 8 8 8 8 8 8 9 10 11 12 12 13 13 14 14 14 14 14 15 16 17 18 19
34 35 35 34 33 33 32 31 30 28 27 25 24 22 21 20 18 17 15 13 12 12 11 10 8 7 6 6 5 4 3 2 2 2 3 4 4 5 6 7 8 8 9 9 9 9 8 8 7 8 8 8 9 10 11 12 13 14 14 14 14 14 14 15 15 16 17 19 20
34 34 34 33 33 32 31 30 29 28 26 25 23 22 20 19 18 17 15 13 11 10 10 9 8 7 6 5 4 4 3 2 2 3 3 4 5 6 7 7 8 9 9 9 10 10 9 8 8 8 8 9 10 11 12 12 13 14 15 15 15 15 15 15 16 17 18 20 21
34 34 33 33 33 32 31 29 28 27 26 24 23 21 20 19 17 16 15 13 11 10 9 8 8 7 6 5 4 3 3 2 3 3 4 5 5 6 7 8 8 9 9 10 10 10 10 9 9 9 9 10 11 12 12 13 14 15 15 15 15 15 15 16 17 18 19 21 21
34 34 33 33 32 31 30 29 27 26 25 24 22 21 20 18 16 15 14 13 11 10 9 8 7 7 6 5 4 4 3 3 3 3 4 5 6 6 7 8 9 9 10 10 10 10 10 9 9 9 10 10 11 12 13 14 15 15 16 16 16 16 16 17 18 19 20 21 22
34 33 33 32 31 30 29 28 27 26 25 23 22 20 19 17 16 14 13 12 11 10 9 8 7 6 5 5 4 3 3 3 3 3 4 5 6 7 8 9 9 10 10 11 11 11 11 10 10 10 10 11 12 13 14 15 15 16 16 16 16 17 17 18 18 20 21 22 22
34 33 32 31 30 30 29 28 26 25 24 23 21 20 18 17 15 14 13 11 10 9 8 8 7 6 5 4 4 3 3 3 3 3 4 5 6 7 8 9 10 11 11 12 12 12 12 11 11 11 11 12 13 13 14 15 16 16 16 17 17 17 18 18 19 21 22 23 23
34 33 32 31 30 29 28 27 26 25 24 22 21 19 18 16 15 14 12 11 10 9 8 7 6 6 5 4 4 3 3 2 3 3 4 5 6 7 8 9 10 11 12 13 13 12 11 11 11 11 12 12 13 14 14 15 16 16 16 17 17 18 19 19 20 21 22 23 23
34 33 32 31 30 29 28 27 26 25 23 22 20 18 17 15 14 13 12 11 10 9 8 7 6 5 5 4 3 3 2 2 3 4 5 6 7 8 9 10 11 12 13 13 13 12 10 10 10 11 12 13 13 14 15 15 16 16 16 17 17 18 19 20 21 22 22 23 24
33 33 32 31 30 29 28 27 25 24 22 21 19 17 16 15 13 13 12 11 10 9 8 7 6 5 4 3 3 2 2 3 4 5 6 7 8 9 10 11 12 13 13 14 14 12 10 10 10 11 11 13 14 14 15 16 16 16 17 17 18 18 20 20 21 22 23 24 24
33 32 32 31 29 28 27 25 24 23 21 20 18 17 15 14 13 12 11 11 10 8 7 7 6 5 4 3 2 2 2 3 4 5 6 8 9 10 11 12 13 13 14 14 14 12 11 11 11 11 11 12 13 14 15 16 16 17 17 17 18 19 20 21 21 22 23 24 24
32 32 31 30 29 27 26 24 23 22 20 19 17 16 15 14 13 12 11 10 9 8 7 7 5 4 3 2 2 2 3 4 5 6 7 8 9 10 11 12 13 14 14 14 14 12 11 11 11 12 12 12 13 14 15 16 17 17 18 18 19 20 20 21 21 22 23 24 24
32 31 30 29 28 26 25 23 22 21 19 18 16 15 14 13 12 11 11 10 9 8 7 6 5 3 2 2 2 2 3 4 6 7 8 9 10 11 12 13 14 14 14 14 14 12 12 12 12 12 13 13 13 14 15 16 17 18 18 19 20 20 21 21 22 22 23 23 24
31 30 29 28 27 26 24 23 21 20 18 17 16 15 14 13 12 11 10 10 9 8 6 5 4 3 2 2 2 3 4 5 6 8 9 10 11 12 13 13 14 14 15 14 14 12 12 12 12 13 13 14 14 14 15 16 17 18 19 20 20 20 21 21 22 22 23 23 24
30 30 29 28 26 25 23 22 20 19 17 16 15 14 13 13 12 11 10 9 8 7 5 4 3 3 2 2 3 4 5 6 7 8 10 11 12 12 13 14 14 14 15 14 13 12 12 13 13 13 14 14 14 15 16 17 18 19 19 20 20 20 20 21 21 22 23 24 25
30 29 28 27 26 24 22 21 19 18 17 16 15 14 13 12 11 10 9 8 7 6 5 4 3 2 2 3 4 5 6 7 8 9 10 11 12 13 13 14 14 14 15 14 13 13 13 13 13 14 14 15 14 15 16 17 18 19 20 20 20 20 20 20 21 22 24 25 26
29 28 27 26 25 23 21 20 18 17 16 15 14 13 12 11 10 9 8 7 6 5 4 3 2 2 3 4 5 6 7 8 9 10 11 12 13 13 13 14 14 14 14 14 13 13 13 14 14 14 15 15 15 15 17 18 19 19 20 19 19 19 19 20 21 23 24 26 26
28 27 26 25 24 22 21 19 17 16 15 14 13 12 11 10 9 9 7 6 5 4 3 2 2 2 3 4 5 7 8 8 9 10 11 12 13 13 14 13 14 14 14 14 14 14 14 14 15 15 15 15 15 16 18 19 19 20 19 19 18 19 19 21 22 24 25 26 26
28 27 26 24 23 21 20 18 17 16 15 14 13 12 11 10 9 8 7 5 4 3 2 2 2 3 4 5 6 7 8 9 10 11 11 12 13 13 13 13 14 14 14 14 14 15 15 15 15 16 16 16 16 17 19 19 20 19 18 18 18 19 20 22 23 25 25 25 24
27 26 25 23 22 20 19 17 16 15 14 14 13 12 10 9 8 7 5 4 3 2 2 2 3 4 5 6 7 8 9 10 10 11 12 12 13 13 13 14 14 14 14 15 15 15 15 15 15 16 16 16 17 18 19 19 18 17 17 17 18 19 21 23 24 24 24 22 20
25 25 24 22 21 19 18 17 16 15 14 13 12 11 9 8 7 6 5 3 3 2 2 2 3 4 5 7 8 8 9 10 11 11 12 12 13 13 14 14 14 15 15 15 15 16 15 15 16 16 16 16 17 18 19 17 16 16 16 16 18 20 22 23 23 21 19 17 15
24 23 22 21 20 19 17 16 15 14 14 12 11 10 8 7 6 5 4 3 2 2 3 3 4 5 6 7 8 9 9 10 11 11 11 12 12 13 13 14 15 15 15 16 16 16 15 15 16 16 17 16 17 17 17 16 16 16 16 17 18 19 21 21 20 17 14 12 13
22 21 20 20 19 18 16 15 14 13 13 11 10 9 7 6 5 4 3 2 2 2 3 4 5 6 7 8 8 9 9 10 11 11 11 11 12 12 13 14 15 15 15 15 15 16 15 15 16 17 17 17 16 16 16 16 16 16 16 17 18 19 20 18 15 12 11 13 15
20 19 18 18 17 17 16 15 14 12 11 10 9 8 7 5 4 3 3 2 2 3 4 5 6 6 7 8 9 10 10 10 10 11 11 11 11 12 13 14 15 15 15 15 15 15 15 15 16 17 17 17 16 16 15 16 16 17 17 18 19 19 18 15 12 11 13 16 20
18 18 17 16 16 15 15 14 13 12 11 9 8 7 6 5 4 3 2 2 2 3 4 5 6 7 8 9 10 11 11 11 11 11 11 11 12 12 13 14 15 15 15 15 16 15 15 16 16 17 17 17 17 16 16 16 16 17 18 18 18 18 15 13 11 13 16 21 23
Wind_Direction
165 165 164 164 164 163 162 161 161 161 160 158 156 154 153 151 149 149 150 151 151 150 150 151 151 149 147 147 148 147 144 141 138 136 136 133 110 54 17 1 351 344 339 335 332 331 330 329 330 330 330 329 328 327 326 325 327 328 329 330 329 328 328 326 323 320 318 316 314
164 164 164 164 164 162 161 160 160 159 158 157 155 153 152 151 149 149 150 151 151 151 150 150 150 148 146 147 148 147 145 143 142 142 143 139 115 33 3 352 344 339 335 333 331 330 330 329 329 329 328 326 326 325 324 325 326 328 329 329 328 327 326 325 322 320 318 317 316
164 163 163 163 162 161 160 159 158 157 156 154 153 151 151 150 149 149 149 150 151 151 150 148 148 148 148 147 149 149 147 145 145 146 147 142 102 19 355 346 340 335 332 331 330 329 328 328 328 327 326 325 325 324 324 325 327 329 330 329 328 327 326 324 321 320 319 318 317
163 163 164 163 163 163 161 160 158 157 155 152 151 150 150 150 149 148 149 150 151 151 150 148 147 148 149 150 151 150 149 147 148 150 148 140 82 10 351 342 337 334 332 331 330 330 328 328 328 327 326 325 326 326 326 327 329 330 330 329 328 326 325 322 321 319 319 318 318
164 165 165 165 165 164 162 160 158 156 154 152 151 150 150 149 149 148 149 149 150 150 150 149 148 149 151 153 153 152 150 149 151 152 148 128 42 360 346 340 336 333 332 332 331 330 329 328 328 328 327 327 328 328 328 329 330 330 330 329 328 326 324 323 321 319 319 318 319
165 166 166 166 165 164 161 159 157 155 153 153 152 151 150 150 149 149 149 149 149 149 149 150 150 151 152 155 155 154 152 151 151 151 143 96 16 356 346 340 335 334 332 332 331 330 330 329 329 329 329 330 330 330 330 330 331 331 330 328 327 326 325 323 322 320 319 319 319
166 165 165 165 164 162 160 158 156 154 154 154 153 152 151 151 151 150 150 150 149 149 150 152 153 154 155 157 157 156 153 152 150 147 127 42 8 353 344 339 335 334 333 333 333 332 331 331 331 331 332 332 333 332 331 331 331 330 329 328 327 327 326 325 323 322 321 320 319
165 165 165 164 163 161 159 157 155 154 154 154 153 152 152 152 152 151 151 151 150 150 152 154 155 156 158 158 157 156 153 152 149 139 108 28 2 350 342 338 336 334 334 335 334 333 333 333 333 333 333 334 334 332 332 331 331 330 329 329 329 329 328 327 326 324 323 321 320
162 163 164 163 162 160 158 156 156 155 154 153 153 152 152 152 153 152 152 151 151 152 153 155 156 158 158 159 156 153 152 149 146 129 84 25 360 346 340 338 335 334 335 335 336 335 335 336 336 335 335 335 334 333 331 331 331 330 330 330 330 330 330 329 328 326 324 323 322
160 161 162 161 160 159 157 156 156 155 153 152 152 152 153 153 154 153 152 151 152 153 155 156 158 159 159 157 155 152 148 144 134 111 66 23 360 346 339 336 334 335 336 337 338 338 337 338 338 338 336 335 335 333 332 331 332 332 332 331 331 331 331 331 330 329 327 325 323
161 161 161 160 159 157 156 155 154 153 152 151 151 152 153 154 154 154 153 153 153 153 154 157 159 160 159 156 153 149 143 134 119 92 52 18 357 345 339 336 337 337 338 339 339 340 340 340 340 339 337 336 335 334 333 332 333 333 334 333 332 332 332 332 332 331 329 326 324
161 161 160 159 157 156 155 154 153 152 151 151 151 152 153 153 154 154 154 155 154 153 153 156 159 159 158 154 149 143 136 125 105 76 40 14 355 345 340 340 339 340 340 341 341 341 341 340 340 338 338 336 335 336 335 334 334 335 335 334 334 334 334 334 334 332 330 327 325
160 159 158 157 156 156 154 153 152 152 152 151 152 152 152 153 154 155 156 157 156 154 153 153 156 157 155 150 144 137 128 113 91 63 35 10 355 346 342 341 341 341 342 343 343 343 343 341 339 338 337 337 336 336 337 336 336 337 336 336 335 335 335 334 334 332 330 328 325
159 158 157 156 156 155 154 153 152 152 152 152 152 152 152 152 153 156 158 159 158 155 154 153 153 151 148 142 136 129 118 103 81 56 30 8 353 346 343 342 342 343 344 344 344 344 343 341 339 337 336 336 336 336 337 338 338 338 337 337 336 335 335 334 333 332 330 328 325
157 157 157 156 156 155 154 152 152 152 152 152 152 152 152 152 154 157 159 160 158 156 154 153 150 147 141 136 129 121 110 94 75 50 28 7 354 347 345 344 344 345 345 346 346 345 344 341 338 336 334 334 335 336 337 338 338 337 337 336 335 334 333 333 332 331 330 328 326
155 155 156 156 155 155 153 152 152 152 152 151 152 152 152 151 154 157 160 159 156 154 153 152 148 143 138 133 125 116 105 91 73 47 25 8 357 351 348 346 346 345 345 346 347 346 344 340 336 333 332 333 334 335 337 337 337 336 336 335 334 333 332 331 331 330 329 327 325
154 154 155 156 155 155 154 153 152 152 152 152 152 152 152 152 154 157 159 158 155 153 150 148 144 140 136 132 124 115 102 89 69 44 21 7 358 353 349 347 346 344 345 345 345 345 342 338 335 332 332 333 334 335 336 336 335 335 334 333 332 330 330 329 329 329 328 327 325
152 154 155 156 156 155 155 154 153 152 152 151 152 152 152 153 154 155 155 155 155 152 148 144 141 138 135 131 125 116 103 86 63 36 17 6 358 353 350 347 345 344 343 343 342 342 339 335 333 332 333 335 336 336 335 334 333 332 331 330 329 328 327 327 328 328 328 327 325
152 153 155 155 156 156 155 154 153 152 151 151 151 151 152 153 154 153 151 150 151 150 147 142 139 137 134 130 124 116 102 77 50 28 14 4 358 352 348 345 343 341 341 341 340 339 337 334 333 334 336 337 336 335 333 332 330 329 328 327 326 325 325 326 327 328 328 328 325
152 153 155 156 156 155 154 153 152 151 150 150 150 150 151 152 153 151 148 145 146 147 145 142 138 136 133 128 122 111 94 68 42 24 11 2 355 349 345 342 340 339 338 338 338 337 335 334 336 338 339 338 335 333 330 329 328 327 326 325 324 323 324 325 326 328 328 328 327
153 154 156 156 156 154 153 152 151 150 149 150 150 149 149 150 150 149 146 144 144 144 142 139 136 133 129 124 116 104 87 63 41 21 8 358 351 346 342 339 338 336 335 336 336 335 335 337 339 341 340 336 332 330 327 326 325 324 323 322 322 322 322 324 326 327 328 329 328
153 155 155 155 154 153 152 150 150 149 149 148 149 148 148 148 147 146 144 143 142 142 140 136 133 128 124 118 108 93 77 57 36 17 3 353 347 342 339 337 335 333 333 334 335 335 337 340 342 341 338 333 329 326 325 324 323 322 321 320 320 320 321 323 325 327 328 329 328
154 154 154 153 153 151 150 149 149 148 148 147 147 147 146 146 145 144 143 142 141 140 138 134 131 126 119 110 98 84 69 51 29 9 357 348 343 339 336 334 333 332 333 334 335 337 340 341 340 337 333 328 325 323 323 322 321 320 319 319 319 319 321 323 325 327 328 328 328
153 153 152 151 151 150 149 149 148 148 147 146 146 146 146 145 144 143 142 141 140 139 136 132 128 122 115 105 95 81 63 42 20 3 351 343 340 337 335 333 332 332 333 334 337 342 343 338 332 329 327 325 322 321 320 320 319 319 318 318 318 320 321 323 325 326 327 327 327
152 152 151 150 149 149 149 148 148 147 146 146 146 145 145 144 143 142 142 140 139 137 133 130 125 119 111 104 93 77 49 24 6 355 347 341 337 335 333 333 333 334 334 336 340 344 342 331 326 324 323 322 320 319 318 318 318 318 317 317 318 321 323 324 325 325 325 325 325
151 150 149 149 148 148 148 148 147 146 145 145 145 144 143 142 143 142 141 139 137 135 132 128 123 117 110 100 87 61 29 4 353 347 343 340 337 335 334 334 334 335 336 338 342 344 341 332 327 324 322 320 319 318 318 318 317 317 317 317 319 322 324 324 324 324 323 323 323
149 148 148 148 148 147 147 147 146 145 144 144 143 143 142 142 142 142 141 138 136 134 131 127 121 115 107 97 75 43 14 356 348 343 340 338 337 336 335 335 336 337 338 340 343 343 340 333 328 326 324 322 320 318 318 317 316 316 317 318 320 322 324 323 323 322 321 321 321
148 147 147 147 146 146 146 146 144 143 143 143 143 142 142 142 142 142 140 138 136 135 132 127 121 115 107 96 63 25 4 353 347 343 340 338 337 337 337 337 338 338 339 340 343 343 338 332 328 327 325 324 321 319 317 317 316 316 317 319 320 322 323 322 321 319 319 318 318
147 147 147 146 145 144 144 144 143 143 143 143 143 142 142 142 142 141 139 138 136 134 129 124 119 116 108 85 43 12 358 352 345 342 340 339 338 338 338 339 339 339 340 340 343 342 338 331 328 327 326 325 322 319 317 316 316 317 318 319 320 321 321 320 319 317 316 315 315
147 146 146 145 143 143 142 142 142 142 143 143 142 142 142 142 141 140 139 138 136 131 126 121 120 115 99 61 25 9 359 351 345 341 340 340 340 340 340 340 340 339 340 341 343 341 336 331 329 328 327 326 324 320 317 316 316 317 318 319 319 319 319 318 316 315 314 313 313
146 146 145 143 142 141 141 142 142 142 143 143 143 143 143 142 141 140 140 138 134 129 126 122 118 107 78 39 16 7 358 351 346 343 341 341 341 340 340 340 340 339 340 342 343 340 335 331 330 329 328 327 324 320 317 316 316 316 317 317 318 318 317 315 314 313 312 312 312
146 145 144 142 140 140 140 141 142 142 143 143 144 144 144 142 141 139 138 134 130 127 125 123 114 89 54 27 12 2 356 351 347 344 342 341 341 341 340 340 340 340 341 343 343 339 335 332 330 329 328 327 324 320 317 316 316 316 316 316 316 316 315 313 312 311 311 311 311
145 144 143 141 140 139 140 141 142 142 143 144 144 144 143 142 140 138 135 131 128 125 123 117 95 59 33 16 6 360 354 350 348 345 343 342 341 341 340 341 340 341 342 343 342 339 335 333 331 330 328 327 323 319 317 317 317 317 316 316 316 315 313 312 310 310 309 310 309
145 143 142 140 139 139 140 141 142 143 143 143 142 142 142 140 138 136 133 130 128 126 119 96 57 30 15 5 359 356 353 350 347 345 343 341 340 340 340 341 341 342 343 343 341 339 337 334 332 330 328 326 322 320 319 318 318 318 317 316 315 314 312 311 310 309 309 308 308
145 143 141 140 140 140 140 141 143 144 143 141 140 140 140 139 136 133 129 127 126 120 104 70 36 17 6 358 354 352 350 349 347 345 342 341 340 339 340 340 341 342 343 343 341 339 338 335 332 330 328 326 322 321 320 320 319 317 316 316 314 313 312 310 309 308 308 307 307
146 144 141 140 140 141 141 142 144 144 143 141 140 140 140 140 137 132 128 125 122 109 83 54 27 12 4 358 353 350 349 348 346 343 341 340 340 339 340 340 342 343 343 343 341 340 338 336 333 330 328 325 323 322 321 320 318 316 315 314 312 312 311 309 308 308 307 307 307
147 145 143 141 141 142 143 144 145 144 143 142 142 141 141 140 137 133 130 125 113 94 65 33 16 5 359 355 354 351 349 346 344 343 342 341 341 340 341 342 342 343 343 343 342 341 339 336 332 330 329 325 323 322 321 320 317 315 314 312 311 310 310 309 308 306 306 306 310
147 146 144 143 142 143 145 146 146 145 144 143 143 144 144 143 138 133 127 119 94 62 35 16 6 359 355 353 352 350 348 346 344 343 343 342 342 342 343 343 343 343 343 343 342 341 339 335 332 330 329 325 323 322 321 319 316 315 314 313 311 310 310 309 307 305 305 310 317
147 147 146 144 144 145 146 147 147 146 146 146 146 145 146 143 135 128 119 103 65 34 18 8 1 356 351 350 349 349 348 345 343 343 344 345 345 345 345 345 343 343 343 342 341 341 339 334 331 329 328 325 323 322 320 319 317 315 314 314 313 311 310 308 307 308 312 318 321
147 148 147 146 146 147 147 146 146 146 148 148 146 144 142 136 127 117 104 75 41 20 8 1 356 352 349 347 346 345 344 344 344 344 346 347 347 347 346 345 343 342 342 342 342 342 339 334 330 329 328 326 324 322 321 319 317 316 315 314 313 312 311 310 312 316 321 322 322
148 148 148 148 149 149 148 146 145 146 147 147 143 139 135 129 119 104 83 56 29 12 1 357 353 350 347 345 343 342 342 343 344 345 346 347 348 347 346 344 343 342 342 343 343 342 338 333 330 329 328 327 325 323 321 320 318 316 315 314 312 311 311 314 320 323 323 322 321
Height
763 764 766 768 770 772 773 775 777 778 780 781 783 785 787 788 790 791 793 795 796 798 799 801 802 803 804 804 805 805 806 806 807 807 808 808 808 808 808 808 808 808 808 808 808 808 808 808 808 808 808 807 807 807 807 807 806 806 806 805 805 805 804 804 804 803 803 803 802
762 764 766 768 769 771 773 776 778 779 781 782 783 785 786 788 789 791 793 795 796 798 799 800 802 803 803 804 804 805 805 806 806 807 807 808 808 808 808 808 808 808 808 808 808 808 808 808 808 808 807 807 807 807 806 806 806 805 805 805 804 804 804 803 803 803 802 802 802
762 764 766 768 769 771 773 776 778 779 781 782 783 785 786 788 789 791 793 795 796 798 799 800 801 802 803 803 804 804 805 805 806 807 807 807 807 807 807 807 808 808 808 808 808 808 808 807 807 807 807 807 807 806 806 806 805 805 804 804 804 803 803 803 802 802 802 801 801
763 764 766 768 769 771 773 775 777 779 780 782 783 785 786 788 789 791 793 795 796 798 799 800 801 802 802 803 803 804 804 805 806 806 807 807 807 807 807 807 807 807 807 807 807 807 807 807 807 807 807 807 806 806 805 805 805 804 804 803 803 803 802 802 802 801 801 800 800
763 765 766 768 769 771 773 775 777 778 780 782 783 785 786 788 790 791 793 795 796 798 798 799 800 801 802 803 803 803 804 805 805 806 806 806 806 806 807 807 807 807 807 807 807 807 807 807 807 807 806 806 806 805 805 804 804 803 803 803 802 802 802 801 801 801 800 800 799
763 765 766 768 769 771 773 775 777 778 780 781 783 784 786 788 790 791 793 794 796 797 798 799 800 801 801 802 803 803 804 804 805 805 806 806 806 806 806 806 806 806 806 806 806 806 806 806 806 806 806 806 805 805 804 803 803 803 803 802 802 802 801 801 800 800 799 799 799
763 764 766 768 770 772 773 775 777 778 779 781 783 784 786 788 789 791 793 794 796 797 798 799 800 800 801 802 802 803 803 804 804 805 805 805 805 805 806 806 806 806 806 806 806 806 806 806 806 806 805 805 804 804 803 803 803 802 802 802 801 801 801 800 800 799 799 798 798
763 764 766 768 770 772 773 775 777 778 779 781 783 784 786 788 789 791 793 794 795 797 798 798 799 800 800 801 802 803 803 804 804 804 805 805 805 805 805 805 805 805 805 805 806 806 806 806 805 805 805 804 804 803 803 802 802 802 801 801 801 800 800 799 799 798 798 797 797
763 765 767 769 770 772 773 775 777 778 779 781 783 785 786 788 789 791 792 794 795 796 797 798 799 799 800 801 801 802 803 803 803 804 804 804 804 804 805 805 805 805 805 805 805 805 805 805 805 804 804 804 803 803 802 802 801 801 800 800 800 799 799 799 798 798 797 796 796
763 765 767 769 771 773 774 776 777 778 780 782 783 785 787 788 789 791 792 793 795 796 797 798 798 799 800 800 801 802 802 803 803 803 803 804 804 804 804 804 804 805 805 805 805 805 805 804 804 804 803 803 803 802 802 801 801 800 800 799 799 799 798 798 797 797 796 795 794
763 765 767 769 771 773 774 776 778 779 780 782 784 786 787 788 790 791 792 793 794 796 797 798 798 799 799 800 801 801 802 802 803 803 803 803 803 804 804 804 804 804 804 804 804 804 804 804 803 803 803 802 802 801 801 800 800 799 799 799 798 798 797 797 796 796 795 794 793
763 765 767 769 771 773 774 776 778 779 781 783 784 786 787 788 790 791 792 793 794 795 796 797 798 798 799 800 800 801 801 802 802 802 803 803 803 803 803 804 804 804 804 804 803 803 803 803 803 803 802 802 801 801 800 799 799 798 798 798 797 797 796 795 795 794 793 793 792
763 765 767 769 771 773 774 776 778 779 781 783 784 786 787 788 790 791 792 793 794 795 796 797 798 798 799 799 800 800 801 801 801 802 802 803 803 803 803 803 803 803 803 803 803 803 803 803 802 802 802 801 801 800 799 799 798 798 797 797 796 796 795 794 793 793 792 792 791
763 765 767 769 771 773 774 776 778 780 781 783 784 786 787 788 790 791 792 793 794 795 796 797 798 798 799 799 800 800 800 801 801 801 802 802 803 803 803 803 803 803 803 803 803 802 802 802 802 801 801 800 800 799 799 798 798 797 796 796 795 794 794 793 793 792 791 790 789
763 765 767 769 771 773 775 776 778 780 781 783 784 786 787 788 790 791 792 793 794 795 796 797 797 798 798 799 799 799 800 800 800 801 801 802 802 802 803 803 802 802 802 802 802 802 802 801 801 800 800 799 799 798 798 797 797 796 795 795 794 793 793 792 791 791 790 789 788
764 766 768 769 771 773 775 776 778 780 781 783 784 786 787 788 790 791 792 793 794 795 796 796 797 798 798 798 799 799 799 800 800 801 801 801 802 802 802 802 802 802 802 801 801 801 801 801 800 800 799 798 798 798 797 796 796 795 794 794 793 793 792 791 790 790 789 788 787
764 766 768 769 771 773 774 776 778 780 781 783 784 786 787 788 790 791 792 793 794 795 795 796 797 797 798 798 798 799 799 799 800 800 801 801 801 801 801 801 801 801 801 801 801 801 800 800 799 799 798 798 797 797 796 795 795 794 793 793 792 792 791 790 789 789 788 787 786
764 766 768 770 771 773 774 776 778 779 781 783 784 786 787 788 789 791 792 793 794 794 795 796 797 797 798 798 798 798 799 799 800 800 800 801 801 801 801 801 801 800 800 800 800 800 800 799 799 798 798 797 796 796 795 794 794 793 792 792 791 790 790 789 788 788 787 786 785
764 766 768 770 771 773 775 776 778 780 781 783 784 786 787 788 789 791 792 793 794 795 795 796 796 797 797 798 798 798 799 799 799 800 800 800 800 800 800 800 800 800 800 800 799 799 799 798 798 797 797 796 795 795 794 793 793 792 791 791 790 789 789 788 788 787 786 785 784
764 766 768 770 772 773 775 777 778 780 782 783 785 786 787 788 790 791 792 793 794 795 795 795 796 797 797 797 798 798 798 799 799 799 799 800 800 800 800 799 799 799 799 799 799 798 798 798 797 796 796 795 794 794 793 792 792 791 790 790 789 788 788 787 786 786 785 784 783
764 766 768 770 772 773 775 777 779 780 782 783 785 786 787 788 790 791 792 793 794 794 795 795 796 796 797 797 798 798 798 798 799 799 799 799 799 799 799 799 799 799 798 798 798 798 797 797 796 795 795 794 793 793 792 791 790 790 789 788 788 787 787 786 785 784 784 783 782
765 767 769 771 772 774 776 778 779 781 782 783 785 786 787 788 790 791 792 793 793 794 795 795 796 796 797 797 797 798 798 798 798 798 799 799 799 799 798 798 798 798 798 798 797 797 796 795 795 794 793 793 792 792 791 790 789 789 788 787 787 786 785 785 784 783 783 782 781
765 767 769 771 773 774 776 778 779 781 782 784 785 786 787 788 790 791 792 793 793 794 794 795 796 796 796 797 797 797 798 798 798 798 798 798 798 798 798 798 798 798 797 797 796 796 795 794 794 793 793 792 791 791 790 789 788 788 787 786 785 785 784 783 783 782 781 780 780
765 768 770 772 773 775 777 778 780 781 783 784 785 786 788 788 790 791 792 793 793 794 794 795 795 796 796 797 797 797 797 798 798 798 798 798 798 798 798 797 797 797 796 796 795 795 794 793 793 792 792 791 790 790 789 788 788 787 786 785 784 783 783 782 782 781 780 779 778
766 768 770 772 774 775 777 778 780 781 783 784 785 786 788 789 790 791 792 793 793 794 794 795 795 796 796 796 797 797 797 797 797 797 797 797 797 797 797 797 796 796 795 795 794 794 793 793 793 792 791 790 789 788 788 787 787 786 785 784 783 782 782 781 780 779 779 778 777
767 768 770 772 774 776 777 779 780 781 783 784 785 787 788 789 790 791 792 792 793 794 794 795 795 795 796 796 796 797 797 797 797 797 797 797 797 797 796 796 796 795 794 794 793 793 793 792 792 791 790 789 788 788 787 786 785 785 784 783 782 781 780 779 778 778 777 776 775
767 769 771 773 774 776 778 779 780 782 783 784 786 787 788 789 790 791 792 792 793 793 794 794 795 795 796 796 796 796 796 796 796 796 796 796 796 796 796 795 795 794 793 793 792 792 792 791 791 790 789 788 788 787 786 785 784 783 783 782 781 780 779 778 778 777 776 775 774
768 769 771 773 775 776 778 779 781 782 783 785 786 787 788 789 790 791 792 792 793 793 794 794 795 795 795 796 796 796 796 796 796 796 796 796 795 795 795 794 794 793 793 792 791 791 790 790 789 789 788 788 787 786 785 784 783 782 782 781 780 779 778 778 777 775 774 773 773
768 770 772 773 775 777 778 780 781 783 784 785 786 787 788 789 790 791 792 792 793 793 794 794 795 795 795 795 795 795 795 796 796 795 795 795 795 794 794 793 793 792 792 791 790 790 789 789 788 788 787 787 786 785 784 783 782 781 780 780 779 778 777 777 775 774 773 773 771
768 770 772 774 775 777 779 780 782 783 784 785 787 788 788 789 790 791 792 792 793 793 794 794 794 795 795 795 795 795 795 795 795 795 795 794 794 794 793 793 792 791 791 790 789 789 788 788 788 787 786 785 785 784 783 782 781 780 779 779 778 777 776 775 774 773 772 771 770
769 771 773 774 776 778 779 781 782 783 784 786 787 788 789 789 790 791 792 792 793 793 794 794 794 794 794 795 795 795 794 794 794 794 794 794 793 793 792 792 791 790 790 789 788 788 788 787 786 786 785 784 783 783 782 781 780 779 778 778 777 776 775 774 773 772 771 770 769
770 772 773 775 776 778 780 781 783 784 785 786 787 788 789 790 790 791 792 792 793 793 793 794 794 794 794 794 794 794 794 794 794 793 793 793 793 792 792 791 790 789 789 788 788 787 787 786 785 784 784 783 783 782 781 780 779 778 778 777 776 775 774 773 772 771 770 769 768
771 772 773 775 777 778 780 782 783 784 785 786 787 788 789 790 790 791 792 792 793 793 793 793 794 794 794 794 794 794 793 793 793 793 793 792 792 791 791 790 789 788 788 787 787 786 786 785 784 783 783 782 781 780 779 778 778 777 776 775 774 774 773 772 771 770 769 768 767
771 773 774 776 778 779 781 782 783 784 785 787 788 788 789 790 790 791 792 792 793 793 793 793 793 793 793 793 793 793 793 793 793 792 792 792 791 790 790 789 788 788 787 787 786 785 784 784 783 783 782 781 780 779 778 777 777 776 775 774 773 773 772 771 770 768 768 766 765
772 773 775 777 778 779 781 783 783 785 786 787 788 788 789 790 790 791 791 792 792 793 793 793 793 793 793 793 793 793 793 792 792 792 791 791 790 790 789 788 788 787 786 786 785 784 783 783 782 781 781 780 779 778 777 776 775 774 773 773 772 771 770 769 768 767 766 765 764
772 773 775 777 778 780 781 783 784 785 786 787 788 788 789 790 790 791 791 792 792 792 792 793 793 793 793 793 792 792 792 792 791 791 790 790 789 789 788 788 787 786 785 785 784 783 783 782 781 780 780 779 778 777 776 775 774 773 772 771 771 770 769 768 767 765 764 763 763
773 774 776 777 779 780 782 783 784 785 786 787 788 788 789 789 790 791 791 791 792 792 792 792 792 792 792 792 792 792 792 791 791 790 790 789 788 788 787 786 786 785 784 784 783 782 782 781 780 779 779 778 777 776 775 774 773 772 771 770 769 768 767 766 765 764 763 762 762
774 775 776 778 779 781 782 783 784 785 786 787 788 788 789 789 790 790 791 791 791 792 792 792 792 792 792 792 792 791 791 790 790 789 789 788 788 787 786 785 785 784 783 783 782 781 781 780 779 779 778 777 776 775 774 773 772 771 770 769 768 767 766 765 763 763 762 761 761
775 776 777 778 779 781 782 783 784 785 786 787 788 788 789 789 790 790 791 791 791 791 791 791 791 791 791 791 791 791 790 790 789 789 788 788 787 786 785 785 784 783 783 782 781 781 780 779 779 778 777 776 775 774 773 772 771 770 769 768 767 765 764 763 762 761 760 760 759
775 777 778 779 780 781 782 783 784 785 786 787 787 788 788 789 789 790 790 790 791 791 791 791 791 791 791 791 790 790 790 789 789 788 788 787 786 786 785 784 783 783 782 781 781 780 779 778 778 777 776 775 774 773 772 771 770 769 768 767 765 764 763 762 761 760 759 758 758
776 777 778 779 781 782 783 783 784 785 786 787 787 788 788 789 789 790 790 790 790 790 791 791 791 790 790 790 790 789 789 788 788 788 787 786 786 785 784 783 783 782 781 780 780 779 778 778 777 776 775 774 773 772 771 770 769 768 766 765 764 763 762 760 760 759 758 757 756